Portada
METAR-TAF:

METAR-TAF

Aeropuertos :

Angoon, Alaska, Estados Unidos

latitud: 57-30N, longitud: 134-35W, altitud: 0 m

Observación

El informe se hizo hace 57 minutos, a las 17:56 UTC
Viento calma
Temperatura 1°C
Humedad 93%
Presión 1001 hPa
Visibilidad: 16.1 km
Cielo cubierto a una altura de 6000 ft

METAR: PAGN 201756Z AUTO 00000KT 10SM OVC060 01/00 A2956 RMK AO2 SLP998 T00060000 10006 21006 53002 FZRANO

Hora: 09:53 (18:53 UTC)


TAF: falta

Observaciones y pronósticos meteorológicos de más de 4000 aeropuertos (mensajes METAR y TAF).

Los puntos amarillos y rojos representan las estaciones disponibles.

Ponga el ratón en el punto deseado para ver el nombre de la estación.

Haga clic para ver las observaciones y los pronósticos meteorológicos.

Para cambiar el mapa : haga clic en los botones verdes con una cruz de color negro para hacer un zoom, en el botón verde con un guión para alejar o en las flechas verdes para mapas adyacentes.


METAR-TAF: